When you browse on this site, cookies collect data to enhance your experience and personalize the content and advertising you see.
Visit our Privacy Policy to learn more. By continuing to use the site, you agree to this use of cookies and data.
  • en Suisse
  • Liste des pays
  • À 7 jours
  • Température de l'eau
  • Carte météo
  • Widgets météo
  • user-avatar
    Se connecter

    Météo par heure à Lopino

    Ce jour, 19 Août, Lundi

    Heure Température Précipitation Vent Pression Humidité
    00:00 +14°C° 0 mm 2 m/s 744 mmHg 95%
    01:00 +14°C° 0 mm 2 m/s 745 mmHg 95%
    02:00 +14°C° 0 mm 2 m/s 745 mmHg 95%
    03:00 +14°C° 0 mm 2 m/s 745 mmHg 95%
    04:00 +13°C° 0 mm 2 m/s 746 mmHg 95%
    05:00 +13°C° 0 mm 1 m/s 746 mmHg 95%
    06:00 +15°C° 0 mm 1 m/s 746 mmHg 91%
    07:00 +16°C° 0 mm 1 m/s 746 mmHg 87%
    08:00 +19°C° 0 mm 1 m/s 747 mmHg 83%
    09:00 +20°C° 0 mm 2 m/s 747 mmHg 78%
    10:00 +21°C° 0 mm 2 m/s 747 mmHg 72%
    11:00 +24°C° 0 mm 3 m/s 747 mmHg 67%
    12:00 +24°C° 0 mm 3 m/s 747 mmHg 66%
    13:00 +25°C° 0 mm 3 m/s 747 mmHg 66%
    14:00 +26°C° 0 mm 3 m/s 747 mmHg 66%
    15:00 +25°C° 0 mm 3 m/s 748 mmHg 69%
    16:00 +25°C° 0 mm 3 m/s 748 mmHg 73%
    17:00 +25°C° 0 mm 3 m/s 748 mmHg 76%
    18:00 +22°C° 0 mm 3 m/s 748 mmHg 80%
    19:00 +21°C° 0 mm 3 m/s 748 mmHg 85%
    20:00 +19°C° 0 mm 3 m/s 748 mmHg 89%
    21:00 +19°C° 0 mm 3 m/s 748 mmHg 89%
    22:00 +18°C° 0 mm 3 m/s 748 mmHg 90%
    23:00 +18°C° 0 mm 3 m/s 748 mmHg 91%

    Demain, 20 Août, Mardi

    Heure Température Précipitation Vent Pression Humidité
    00:00 +18°C° 0 mm 3 m/s 748 mmHg 90%
    01:00 +17°C° 0 mm 3 m/s 749 mmHg 90%
    02:00 +17°C° 0 mm 3 m/s 749 mmHg 90%
    03:00 +17°C° 0.2 mm 3 m/s 749 mmHg 91%
    04:00 +17°C° 0.2 mm 2 m/s 749 mmHg 92%
    05:00 +16°C° 0.2 mm 2 m/s 749 mmHg 93%
    06:00 +18°C° 0.2 mm 2 m/s 750 mmHg 91%
    07:00 +19°C° 0.2 mm 2 m/s 750 mmHg 90%
    08:00 +20°C° 0.2 mm 2 m/s 750 mmHg 88%
    09:00 +23°C° 0.1 mm 2 m/s 750 mmHg 84%
    10:00 +24°C° 0.1 mm 3 m/s 750 mmHg 80%
    11:00 +25°C° 0.1 mm 3 m/s 750 mmHg 76%
    12:00 +26°C° 0.9 mm 3 m/s 750 mmHg 76%
    13:00 +26°C° 0.9 mm 3 m/s 750 mmHg 76%
    14:00 +27°C° 0.9 mm 3 m/s 750 mmHg 76%
    15:00 +26°C° 0.6 mm 3 m/s 750 mmHg 79%
    16:00 +26°C° 0.6 mm 2 m/s 750 mmHg 81%
    17:00 +26°C° 0.6 mm 2 m/s 750 mmHg 84%
    18:00 +25°C° 0.3 mm 1 m/s 751 mmHg 86%
    19:00 +23°C° 0.3 mm 1 m/s 751 mmHg 89%
    20:00 +22°C° 0.3 mm 1 m/s 751 mmHg 92%
    21:00 +21°C° 0.1 mm 1 m/s 751 mmHg 92%
    22:00 +21°C° 0.1 mm 1 m/s 751 mmHg 93%
    23:00 +19°C° 0.1 mm 2 m/s 751 mmHg 94%

    Après-demain, 21 Août, Mercredi

    Heure Température Précipitation Vent Pression Humidité
    00:00 +20°C° 0 mm 1 m/s 751 mmHg 94%
    01:00 +20°C° 0 mm 1 m/s 752 mmHg 94%
    02:00 +19°C° 0 mm 1 m/s 752 mmHg 95%
    03:00 +19°C° 0 mm 1 m/s 752 mmHg 95%
    04:00 +19°C° 0 mm 1 m/s 752 mmHg 95%
    05:00 +19°C° 0 mm 1 m/s 751 mmHg 95%
    06:00 +20°C° 0 mm 1 m/s 752 mmHg 93%
    07:00 +21°C° 0 mm 1 m/s 752 mmHg 90%
    08:00 +21°C° 0 mm 2 m/s 752 mmHg 88%
    09:00 +23°C° 0 mm 2 m/s 752 mmHg 84%
    10:00 +24°C° 0 mm 2 m/s 752 mmHg 79%
    11:00 +26°C° 0 mm 3 m/s 751 mmHg 74%
    12:00 +26°C° 0.1 mm 3 m/s 751 mmHg 72%
    13:00 +27°C° 0.1 mm 3 m/s 751 mmHg 70%
    14:00 +27°C° 0.1 mm 3 m/s 750 mmHg 67%
    15:00 +27°C° 0 mm 3 m/s 750 mmHg 70%
    16:00 +27°C° 0 mm 3 m/s 750 mmHg 73%
    17:00 +27°C° 0 mm 2 m/s 749 mmHg 75%
    18:00 +25°C° 0 mm 2 m/s 749 mmHg 79%
    19:00 +24°C° 0 mm 2 m/s 749 mmHg 83%
    20:00 +21°C° 0 mm 2 m/s 749 mmHg 86%
    21:00 +20°C° 0 mm 3 m/s 749 mmHg 86%
    22:00 +20°C° 0 mm 3 m/s 749 mmHg 86%
    23:00 +19°C° 0 mm 3 m/s 749 mmHg 86%

    22 Août, Jeudi

    Heure Température Précipitation Vent Pression Humidité
    00:00 +19°C° 0 mm 2 m/s 749 mmHg 87%
    01:00 +18°C° 0 mm 2 m/s 749 mmHg 88%
    02:00 +18°C° 0 mm 2 m/s 750 mmHg 90%
    03:00 +18°C° 0.3 mm 2 m/s 749 mmHg 92%
    04:00 +18°C° 0.3 mm 2 m/s 749 mmHg 94%
    05:00 +18°C° 0.3 mm 2 m/s 749 mmHg 96%
    06:00 +18°C° 0.1 mm 2 m/s 750 mmHg 95%
    07:00 +18°C° 0.1 mm 3 m/s 750 mmHg 95%
    08:00 +17°C° 0.1 mm 4 m/s 750 mmHg 94%
    09:00 +18°C° 0 mm 3 m/s 751 mmHg 92%
    10:00 +18°C° 0 mm 3 m/s 751 mmHg 89%
    11:00 +18°C° 0 mm 3 m/s 751 mmHg 87%
    12:00 +19°C° 0 mm 3 m/s 751 mmHg 85%
    13:00 +19°C° 0 mm 3 m/s 751 mmHg 83%
    14:00 +20°C° 0 mm 3 m/s 751 mmHg 81%
    15:00 +20°C° 0 mm 3 m/s 751 mmHg 81%
    16:00 +20°C° 0 mm 3 m/s 751 mmHg 82%
    17:00 +19°C° 0 mm 3 m/s 751 mmHg 83%
    18:00 +19°C° 0 mm 2 m/s 751 mmHg 84%
    19:00 +18°C° 0 mm 2 m/s 751 mmHg 86%
    20:00 +17°C° 0 mm 2 m/s 751 mmHg 88%
    21:00 +17°C° 0 mm 2 m/s 751 mmHg 90%
    22:00 +16°C° 0 mm 2 m/s 751 mmHg 91%
    23:00 +15°C° 0 mm 2 m/s 751 mmHg 93%

    23 Août, Vendredi

    Heure Température Précipitation Vent Pression Humidité
    00:00 +15°C° 0 mm 2 m/s 751 mmHg 93%
    01:00 +15°C° 0 mm 2 m/s 751 mmHg 93%
    02:00 +15°C° 0 mm 2 m/s 751 mmHg 93%
    03:00 +15°C° 0 mm 2 m/s 751 mmHg 93%
    04:00 +14°C° 0 mm 2 m/s 751 mmHg 93%
    05:00 +14°C° 0 mm 2 m/s 751 mmHg 93%
    06:00 +15°C° 0 mm 2 m/s 752 mmHg 89%
    07:00 +17°C° 0 mm 2 m/s 752 mmHg 85%
    08:00 +18°C° 0 mm 2 m/s 752 mmHg 81%
    09:00 +19°C° 0 mm 2 m/s 752 mmHg 76%
    10:00 +20°C° 0 mm 2 m/s 752 mmHg 70%
    11:00 +21°C° 0 mm 3 m/s 752 mmHg 65%
    12:00 +22°C° 0.1 mm 3 m/s 752 mmHg 63%
    13:00 +22°C° 0.1 mm 3 m/s 752 mmHg 62%
    14:00 +22°C° 0.1 mm 3 m/s 752 mmHg 61%
    15:00 +21°C° 0.3 mm 3 m/s 752 mmHg 67%
    16:00 +20°C° 0.3 mm 3 m/s 752 mmHg 73%
    17:00 +19°C° 0.3 mm 3 m/s 752 mmHg 79%
    18:00 +18°C° 0 mm 3 m/s 752 mmHg 81%
    19:00 +16°C° 0 mm 3 m/s 752 mmHg 83%
    20:00 +13°C° 0 mm 3 m/s 752 mmHg 86%
    21:00 +13°C° 0 mm 3 m/s 752 mmHg 88%
    22:00 +12°C° 0 mm 3 m/s 753 mmHg 90%
    23:00 +12°C° 0 mm 3 m/s 753 mmHg 92%

    24 Août, Samedi

    Heure Température Précipitation Vent Pression Humidité
    00:00 +11°C° 0 mm 3 m/s 753 mmHg 93%
    01:00 +11°C° 0 mm 3 m/s 753 mmHg 94%
    02:00 +10°C° 0 mm 3 m/s 753 mmHg 95%
    03:00 +10°C° 0 mm 3 m/s 753 mmHg 95%
    04:00 +10°C° 0 mm 2 m/s 754 mmHg 95%
    05:00 +10°C° 0 mm 2 m/s 754 mmHg 96%
    06:00 +12°C° 0 mm 2 m/s 754 mmHg 91%
    07:00 +14°C° 0 mm 2 m/s 754 mmHg 86%
    08:00 +15°C° 0 mm 2 m/s 754 mmHg 82%
    09:00 +17°C° 0 mm 3 m/s 755 mmHg 74%
    10:00 +19°C° 0 mm 3 m/s 755 mmHg 67%
    11:00 +20°C° 0 mm 3 m/s 755 mmHg 59%
    12:00 +21°C° 0 mm 2 m/s 755 mmHg 57%
    13:00 +21°C° 0 mm 2 m/s 754 mmHg 55%
    14:00 +23°C° 0 mm 2 m/s 754 mmHg 53%
    15:00 +21°C° 0 mm 2 m/s 754 mmHg 58%
    16:00 +22°C° 0 mm 1 m/s 754 mmHg 63%
    17:00 +22°C° 0 mm 1 m/s 754 mmHg 68%
    18:00 +20°C° 0 mm 1 m/s 754 mmHg 72%
    19:00 +18°C° 0 mm 1 m/s 754 mmHg 76%
    20:00 +15°C° 0 mm 1 m/s 754 mmHg 80%
    21:00 +14°C° 0 mm 1 m/s 754 mmHg 82%
    22:00 +14°C° 0 mm 1 m/s 755 mmHg 84%
    23:00 +13°C° 0 mm 1 m/s 755 mmHg 86%
    Voir plus